Temp
58 50 45 51 53 55 54 51 51 57 63 59 57 57 64 69 64 64 65 66 67 67 71 69 69 66 65 65 65 66 66 65 67 65 64 62 64 66 68 71 72 72 71 72
51 46 55 58 57 56 54 50 50 56 61 58 55 56 60 61 62 67 67 66 66 67 70 67 65 65 68 67 65 65 67 66 67 66 64 65 63 63 64 65 67 69 71 70
47 53 61 58 55 54 53 50 51 52 58 57 53 51 55 62 62 65 64 65 66 67 68 64 65 67 66 67 64 65 65 65 64 64 62 61 61 60 60 60 62 66 68 70
50 58 58 54 54 55 47 58 59 56 50 44 53 40 49 56 59 61 65 64 65 66 66 63 64 62 63 64 64 64 63 63 63 62 63 63 62 61 61 61 61 62 64 66
51 52 52 51 55 58 53 60 58 56 49 45 46 41 47 51 54 59 62 63 62 62 65 63 66 67 63 63 63 63 63 63 62 62 63 61 59 59 59 59 60 60 61 64
54 60 58 57 61 59 61 54 49 45 43 36 44 43 42 49 53 56 60 62 62 60 57 61 61 62 60 60 60 60 62 62 62 61 61 61 61 59 57 58 58 58 60 62
51 52 57 61 52 56 52 42 34 33 33 34 45 41 45 53 56 58 58 58 56 56 56 57 59 60 59 59 60 60 60 61 61 61 61 61 61 60 59 58 58 57 58 59
42 40 54 59 52 47 45 43 33 30 29 35 45 38 45 55 57 59 60 58 58 58 60 61 62 62 62 62 61 61 60 61 60 60 61 60 60 59 58 59 58 58 57 58
43 47 57 60 59 56 46 40 46 36 34 32 36 44 51 55 56 58 58 59 57 58 57 58 59 58 59 60 60 59 59 60 60 60 59 59 58 58 58 58 57 58 57 60
49 41 54 58 61 59 53 54 38 35 28 26 33 37 41 48 51 55 56 57 58 58 58 57 57 56 56 57 56 56 56 56 56 56 56 58 58 59 58 57 57 56 57 58
47 43 44 49 47 48 46 41 41 38 33 27 27 34 50 53 53 53 52 54 53 51 51 51 52 53 53 53 53 53 54 53 54 54 55 55 56 56 56 55 57 57 56 57
48 41 36 41 48 51 46 41 40 31 32 29 27 32 53 51 50 51 51 51 51 50 50 50 52 53 53 52 53 52 53 53 53 54 53 53 53 54 53 54 55 56 55 56
48 38 33 36 41 46 42 44 42 40 39 37 33 37 53 53 49 49 48 50 51 51 50 50 50 50 51 52 53 53 53 52 53 53 52 51 52 52 51 52 53 54 56 56
50 38 37 33 36 39 37 43 45 38 35 38 39 40 47 49 48 48 48 47 47 48 50 49 49 49 50 52 52 53 53 52 52 52 51 50 50 50 50 52 52 53 56 56
42 35 37 38 42 43 41 41 42 38 38 34 38 38 44 46 43 44 46 47 47 47 48 49 49 48 49 49 49 50 50 50 51 51 52 52 53 54 54 53 52 52 53 56
39 32 35 35 41 40 38 42 42 42 43 41 41 40 44 47 46 45 45 46 45 46 48 49 50 51 50 47 48 50 50 50 51 50 50 52 52 53 53 53 52 50 51 53
35 33 30 28 35 37 32 38 42 42 42 42 37 39 42 42 44 44 43 44 45 46 48 49 48 45 46 46 48 46 47 48 47 47 47 48 48 48 49 51 51 50 49 49
35 32 30 27 30 22 38 49 48 43 43 44 43 43 44 42 45 48 47 42 45 47 47 44 44 45 46 46 45 45 45 45 45 45 46 47 48 47 48 50 50 51 49 47
39 33 30 26 25 33 40 44 42 40 37 45 45 45 44 44 43 41 46 45 44 43 42 42 44 44 44 43 44 44 44 44 44 44 45 46 47 46 47 47 47 47 47 48
40 38 30 29 23 22 36 46 52 49 33 43 42 40 40 39 32 36 44 43 42 41 40 41 42 43 44 44 45 42 41 42 41 43 44 46 45 45 45 46 46 47 48 49
35 35 32 30 29 31 42 47 49 32 32 41 42 39 37 35 38 42 42 41 41 41 42 41 43 41 42 43 42 39 40 39 42 44 44 44 44 43 44 44 45 44 45 45
35 33 31 33 29 26 45 45 36 38 42 42 40 39 38 38 39 39 40 40 41 42 40 40 38 39 41 41 40 38 38 42 43 43 43 43 43 44 44 43 44 44 44 44
35 35 34 34 33 42 46 42 47 45 41 40 38 40 38 37 37 38 38 40 39 38 37 38 37 37 39 40 39 37 39 42 42 42 42 43 43 43 44 42 42 43 44 44
40 45 39 38 42 45 46 50 48 44 41 41 41 39 38 36 39 38 37 36 36 36 36 37 37 35 36 38 39 39 41 42 41 40 41 43 42 42 43 43 44 44 44 44
38 42 38 41 42 46 48 45 43 42 42 42 41 39 37 37 37 36 35 35 35 35 36 36 35 34 35 38 38 40 41 41 39 40 41 42 42 42 43 44 44 45 45 45
38 37 33 33 41 40 38 41 43 40 40 40 38 37 40 38 35 35 34 34 34 34 35 35 34 35 36 37 38 39 41 41 40 39 41 42 42 42 43 43 44 43 42 42
MSLP
1006.99 1007.40 1007.57 1007.27 1007.11 1007.19 1007.28 1007.01 1006.78 1005.96 1004.96 1004.87 1004.65 1004.66 1004.26 1003.70 1003.85 1004.00 1004.34 1004.59 1004.65 1004.66 1004.11 1004.65 1005.13 1005.50 1005.87 1006.30 1006.43 1006.61 1006.81 1007.11 1007.24 1007.92 1008.25 1008.61 1008.88 1009.03 1009.26 1009.37 1009.30 1009.59 1009.80 1009.75
1006.64 1006.50 1006.26 1006.23 1006.55 1006.84 1006.94 1006.71 1006.14 1005.31 1004.63 1004.79 1004.73 1004.93 1004.20 1003.68 1003.52 1003.29 1003.68 1004.25 1004.38 1004.46 1004.28 1004.92 1005.22 1005.69 1005.75 1005.88 1006.10 1006.39 1006.50 1006.74 1006.90 1007.13 1007.79 1008.21 1008.76 1009.01 1009.14 1009.23 1009.39 1009.50 1009.64 1009.74
1006.22 1005.79 1005.55 1005.85 1006.04 1006.40 1006.35 1006.44 1006.02 1005.82 1005.17 1005.06 1005.25 1005.18 1004.55 1003.65 1003.33 1003.24 1003.61 1003.74 1003.99 1004.20 1004.36 1004.92 1005.38 1005.31 1005.50 1005.92 1006.23 1006.40 1006.62 1006.85 1006.98 1007.13 1007.75 1008.37 1008.87 1009.28 1009.41 1009.34 1009.28 1009.16 1009.16 1009.24
1005.95 1005.29 1005.15 1005.41 1005.64 1005.87 1005.87 1005.59 1005.69 1005.77 1006.25 1006.50 1006.02 1006.27 1005.69 1004.65 1004.15 1003.62 1003.71 1004.15 1004.28 1004.30 1004.24 1004.80 1005.30 1005.52 1005.32 1005.77 1006.27 1006.58 1006.82 1006.94 1007.12 1007.21 1007.68 1008.21 1008.79 1009.37 1009.16 1009.24 1009.16 1008.98 1009.00 1009.07
1005.52 1005.06 1004.91 1004.95 1004.94 1005.26 1005.10 1004.74 1005.43 1005.98 1006.48 1007.04 1007.12 1007.25 1005.85 1005.27 1004.71 1004.24 1004.16 1004.16 1004.27 1004.12 1003.97 1004.27 1004.50 1004.62 1005.20 1005.55 1005.99 1006.41 1006.77 1006.97 1007.07 1007.17 1007.45 1008.10 1008.74 1008.79 1008.82 1008.91 1008.86 1008.93 1008.89 1008.93
1005.12 1004.62 1004.57 1004.43 1004.34 1004.66 1004.70 1005.32 1006.40 1007.20 1007.75 1008.15 1007.68 1007.57 1006.91 1005.79 1005.08 1004.73 1004.29 1004.34 1004.16 1004.05 1003.76 1004.17 1004.80 1005.35 1005.91 1006.01 1006.29 1006.55 1006.86 1006.96 1007.04 1007.25 1007.49 1007.81 1008.07 1008.29 1008.65 1008.70 1008.65 1008.71 1008.62 1008.47
1005.10 1004.81 1004.40 1004.21 1004.57 1004.96 1005.30 1006.28 1008.19 1008.93 1009.37 1009.11 1008.36 1008.03 1006.85 1005.83 1005.28 1004.94 1004.69 1004.86 1004.57 1004.58 1004.83 1004.76 1005.43 1006.48 1006.77 1006.94 1006.95 1006.95 1007.14 1007.13 1006.96 1006.96 1007.11 1007.22 1007.39 1007.57 1007.62 1007.74 1008.02 1008.44 1008.58 1008.41
1005.52 1005.33 1004.64 1004.55 1004.97 1005.58 1006.14 1007.03 1008.47 1009.71 1010.48 1010.01 1008.86 1007.93 1006.79 1006.25 1005.47 1005.16 1005.22 1005.27 1005.38 1005.28 1005.19 1005.61 1006.04 1006.32 1006.44 1006.66 1006.83 1006.98 1007.10 1007.05 1006.95 1006.90 1006.74 1006.53 1006.57 1006.81 1006.96 1007.03 1007.32 1007.75 1007.93 1007.90
1005.78 1005.45 1005.08 1004.89 1005.03 1005.47 1006.30 1007.50 1008.30 1009.88 1011.24 1010.92 1009.89 1008.25 1007.09 1006.44 1006.16 1006.06 1006.11 1006.09 1006.27 1006.18 1006.59 1006.69 1006.82 1006.95 1007.23 1007.37 1007.30 1007.43 1007.26 1006.79 1006.63 1006.42 1006.46 1006.45 1006.32 1006.47 1006.27 1006.23 1006.56 1006.71 1006.80 1006.95
1005.71 1005.99 1005.89 1005.55 1005.41 1005.67 1006.09 1007.28 1008.90 1010.56 1011.94 1011.90 1010.62 1009.16 1007.72 1007.21 1007.09 1006.97 1006.98 1006.95 1006.79 1006.96 1007.46 1007.92 1008.11 1008.29 1008.36 1008.38 1008.19 1008.03 1008.02 1008.06 1008.03 1007.71 1007.51 1007.24 1007.05 1006.39 1005.80 1005.90 1006.14 1006.04 1005.93 1006.07
1006.09 1006.79 1007.08 1006.49 1006.69 1006.63 1007.29 1008.26 1009.66 1010.85 1011.80 1012.02 1011.34 1009.51 1007.84 1007.67 1007.63 1007.80 1008.11 1008.02 1008.18 1008.19 1008.63 1008.86 1009.13 1009.12 1009.23 1009.19 1008.98 1008.82 1008.52 1008.37 1008.03 1007.88 1007.72 1007.51 1007.27 1007.02 1006.87 1006.92 1006.40 1005.53 1005.32 1005.39
1007.07 1007.75 1008.26 1008.04 1007.86 1007.70 1008.11 1009.03 1010.10 1011.15 1012.26 1012.34 1011.82 1009.94 1008.51 1008.43 1008.45 1008.49 1009.13 1009.12 1009.11 1009.40 1009.89 1009.89 1009.82 1009.70 1009.60 1009.38 1009.06 1008.97 1008.72 1008.58 1008.44 1008.21 1008.05 1007.87 1007.58 1007.33 1007.07 1006.68 1006.31 1005.96 1005.87 1005.35
1007.77 1008.82 1009.48 1009.34 1009.21 1008.89 1009.15 1009.59 1010.43 1011.15 1011.82 1011.96 1011.80 1010.39 1009.15 1009.03 1009.20 1009.51 1009.88 1010.28 1010.39 1009.90 1010.53 1010.42 1010.24 1010.08 1009.83 1009.56 1009.34 1008.99 1008.72 1008.52 1008.34 1008.14 1007.92 1007.64 1007.32 1007.03 1006.70 1006.38 1005.99 1005.65 1005.40 1005.02
1008.27 1009.61 1010.08 1010.20 1010.01 1010.05 1010.15 1010.27 1010.57 1011.30 1012.17 1011.84 1011.05 1010.75 1009.83 1009.47 1009.87 1010.07 1010.53 1010.69 1010.73 1010.98 1010.84 1010.80 1010.67 1010.45 1010.04 1009.68 1009.31 1008.82 1008.44 1008.28 1008.09 1007.92 1007.71 1007.39 1006.98 1006.55 1006.18 1005.73 1005.40 1005.13 1004.79 1004.45
1009.73 1010.90 1011.19 1011.21 1010.91 1010.61 1010.50 1010.60 1010.72 1011.06 1011.32 1011.50 1011.10 1010.86 1010.27 1010.22 1010.28 1010.68 1010.83 1010.89 1011.17 1011.18 1011.04 1010.87 1010.65 1010.39 1009.99 1009.63 1009.30 1009.06 1008.81 1008.55 1008.25 1007.87 1007.51 1007.09 1006.58 1005.90 1005.34 1005.00 1004.66 1004.36 1004.05 1003.53
1011.24 1012.06 1012.14 1012.08 1011.60 1011.28 1010.78 1010.28 1010.31 1010.49 1010.52 1010.64 1010.73 1010.52 1010.27 1010.41 1010.65 1011.09 1011.22 1011.37 1011.47 1011.38 1011.19 1010.83 1010.55 1010.20 1009.80 1009.64 1009.47 1009.08 1008.63 1008.19 1007.85 1007.34 1006.84 1006.38 1005.87 1005.29 1004.76 1004.29 1003.92 1003.57 1003.13 1002.61
1012.19 1012.78 1013.34 1013.25 1012.69 1011.83 1010.83 1009.62 1009.39 1009.62 1010.07 1010.07 1010.38 1010.57 1010.76 1011.13 1011.31 1011.31 1011.40 1011.59 1011.64 1011.40 1011.11 1010.84 1010.72 1010.55 1010.26 1009.91 1009.50 1009.03 1008.47 1008.06 1007.67 1007.12 1006.51 1006.01 1005.57 1004.93 1004.33 1003.75 1003.25 1002.73 1002.15 1001.68
1012.50 1013.26 1013.70 1014.12 1013.48 1012.34 1010.28 1009.29 1009.07 1009.71 1010.33 1010.40 1010.66 1011.06 1011.34 1011.53 1011.49 1011.30 1011.37 1011.76 1011.81 1011.60 1011.30 1011.13 1010.96 1010.51 1010.14 1009.73 1009.37 1008.92 1008.41 1007.92 1007.37 1006.76 1006.12 1005.55 1004.98 1004.42 1003.74 1003.03 1002.49 1002.06 1001.63 1001.11
1012.15 1013.26 1014.24 1014.71 1014.19 1012.28 1010.49 1009.89 1009.71 1009.75 1010.79 1010.93 1011.22 1011.53 1011.71 1011.85 1011.74 1011.44 1011.49 1011.54 1011.82 1011.70 1011.67 1011.37 1010.92 1010.46 1009.91 1009.46 1009.01 1008.43 1007.81 1007.42 1006.93 1006.31 1005.68 1005.08 1004.53 1003.82 1003.14 1002.50 1002.07 1001.63 1001.09 1000.37
1012.42 1012.84 1013.72 1014.60 1014.36 1012.64 1010.80 1010.03 1009.82 1009.69 1010.85 1011.16 1011.53 1011.93 1012.24 1012.43 1012.57 1011.92 1011.74 1011.92 1011.90 1011.78 1011.55 1011.22 1010.78 1010.27 1009.72 1009.17 1008.61 1008.08 1007.56 1007.00 1006.34 1005.68 1005.00 1004.43 1003.90 1003.39 1002.70 1002.10 1001.65 1000.99 1000.37 999.80
1012.59 1013.14 1013.46 1013.81 1013.59 1012.23 1010.89 1010.40 1010.11 1010.79 1011.78 1011.51 1011.86 1012.23 1012.59 1012.92 1012.85 1012.06 1011.96 1011.86 1011.84 1011.53 1011.18 1011.04 1010.49 1010.02 1009.41 1008.74 1008.37 1007.70 1007.13 1006.42 1005.78 1005.07 1004.36 1003.71 1003.20 1002.68 1002.09 1001.62 1001.04 1000.42 999.73 999.31
1011.64 1012.33 1012.65 1012.93 1012.96 1012.28 1010.95 1010.77 1011.02 1011.54 1011.56 1011.85 1012.26 1012.60 1012.90 1012.95 1012.78 1012.55 1012.28 1011.95 1011.53 1011.12 1010.98 1010.87 1010.30 1009.55 1009.05 1008.69 1008.16 1007.23 1006.48 1005.83 1005.11 1004.42 1003.68 1002.93 1002.35 1001.84 1001.35 1000.86 1000.30 999.71 999.19 998.81
1011.41 1011.43 1011.72 1012.05 1011.98 1011.52 1011.18 1011.27 1011.39 1011.72 1012.16 1012.62 1012.91 1013.20 1013.37 1013.33 1013.16 1012.91 1012.42 1012.07 1011.78 1011.66 1011.19 1010.72 1010.01 1009.27 1008.85 1008.30 1007.73 1006.75 1005.84 1005.19 1004.44 1003.66 1002.79 1002.06 1001.53 1001.00 1000.58 1000.07 999.55 998.97 998.40 998.17
1011.15 1011.25 1011.57 1011.94 1011.57 1011.55 1011.75 1011.64 1011.92 1012.45 1013.00 1013.33 1013.56 1013.73 1013.78 1013.78 1013.36 1012.93 1012.74 1012.41 1012.04 1011.58 1010.96 1010.42 1009.81 1009.14 1008.38 1007.82 1007.06 1006.39 1005.47 1004.69 1003.91 1003.10 1002.21 1001.22 1000.80 1000.27 999.81 999.30 998.84 998.23 997.87 997.66
1011.23 1011.18 1011.34 1011.41 1011.44 1011.66 1011.96 1012.29 1012.77 1013.29 1013.69 1013.97 1014.12 1014.15 1014.09 1013.95 1013.60 1013.38 1012.96 1012.42 1011.97 1011.48 1010.88 1010.37 1009.71 1008.98 1008.10 1007.35 1006.52 1005.74 1005.03 1004.31 1003.47 1002.63 1001.71 1000.79 1000.27 999.73 999.11 998.55 998.08 997.63 997.34 997.30
1011.08 1010.83 1011.11 1011.29 1011.29 1011.72 1012.73 1013.15 1013.46 1013.94 1014.38 1014.53 1014.50 1014.36 1014.32 1014.21 1013.94 1013.48 1013.03 1012.54 1011.94 1011.25 1010.68 1010.06 1009.41 1008.68 1007.91 1007.14 1006.39 1005.52 1004.73 1003.96 1003.05 1002.10 1001.21 1000.44 999.97 999.40 998.78 998.17 997.44 996.82 996.81 996.77
Wind_Speed
6 4 5 8 8 6 3 3 5 5 6 1 6 5 15 12 8 9 9 9 9 10 10 3 7 8 9 7 8 9 10 9 8 4 4 2 4 2 3 3 4 4 5 7
5 7 10 6 6 5 5 3 7 6 5 5 4 6 7 4 7 12 12 8 9 6 7 5 9 7 12 12 10 8 7 6 4 4 3 3 3 1 1 1 1 0 4 6
6 5 4 5 4 4 5 5 6 7 3 1 2 5 5 5 3 4 3 4 5 9 10 8 10 13 11 13 9 9 9 8 6 6 5 4 3 3 2 1 2 2 2 4
5 7 4 3 6 7 6 7 11 9 5 4 2 5 4 5 6 3 4 6 9 10 8 8 10 9 10 8 8 8 7 8 6 7 5 5 4 3 3 3 3 3 3 4
6 1 2 2 6 6 10 9 13 7 3 5 2 4 8 2 3 5 8 7 8 11 11 12 15 15 7 8 8 7 7 8 6 6 6 6 4 4 2 3 3 2 3 3
6 2 2 5 4 1 6 4 7 5 4 1 4 6 6 3 2 5 4 7 7 8 2 6 6 7 4 4 4 5 6 4 5 7 8 9 9 7 4 4 3 2 2 3
2 2 2 1 1 7 8 7 3 3 2 6 3 3 8 3 2 6 3 7 4 6 7 8 10 6 4 5 6 6 8 8 8 8 8 9 10 9 8 6 4 4 3 3
5 2 5 0 3 3 2 5 7 7 4 4 4 4 4 2 5 7 6 5 7 6 8 9 9 9 9 9 8 8 8 8 8 9 10 8 8 5 5 6 5 5 5 4
5 2 5 4 3 4 1 3 3 7 3 4 3 5 2 4 8 9 8 8 6 6 7 6 7 5 6 5 6 5 6 8 8 8 5 6 6 7 7 8 5 5 5 4
5 2 2 2 1 3 3 3 2 4 5 4 4 3 5 2 5 3 6 6 6 7 8 8 8 9 8 7 8 7 4 3 4 5 5 6 8 6 5 5 8 7 6 6
4 4 3 2 1 2 4 2 5 5 4 5 4 6 4 5 5 7 8 7 7 8 9 8 7 7 7 6 7 7 8 8 8 8 8 9 9 8 6 6 8 6 6 7
2 5 3 3 5 1 4 2 4 6 4 3 4 7 4 5 6 9 7 6 7 8 6 5 6 5 5 5 6 6 6 6 5 4 5 5 6 6 6 6 7 7 8 8
3 2 2 3 5 6 4 3 5 5 3 4 2 4 5 6 8 7 7 5 4 8 7 7 7 7 7 7 6 6 5 6 5 4 4 5 6 6 6 7 7 7 8 10
6 3 3 5 3 3 2 2 3 7 2 2 8 3 11 6 6 7 7 4 5 4 5 5 5 6 7 7 7 7 8 6 7 7 6 7 7 7 7 7 8 8 11 10
5 3 2 1 2 2 4 5 7 7 6 9 6 9 10 5 2 4 4 4 5 5 5 5 6 7 7 7 6 5 6 7 9 11 12 13 13 13 13 13 12 11 12 13
4 3 2 3 3 3 3 8 7 8 11 12 11 9 3 4 4 4 4 2 5 7 8 9 9 11 11 7 10 12 13 14 14 15 16 16 16 16 16 15 13 12 14 15
3 5 3 3 5 6 6 6 8 2 4 5 8 4 2 1 5 4 3 2 6 8 10 12 10 6 9 11 13 14 15 15 15 15 15 14 15 16 16 16 16 16 13 12
5 4 3 0 4 2 5 6 6 11 5 6 7 4 2 1 5 8 5 3 7 10 11 8 10 12 13 13 13 14 13 14 14 15 15 15 15 16 16 15 13 13 13 15
4 4 4 2 2 6 1 2 2 2 1 3 2 2 2 6 7 5 5 2 8 8 6 9 10 13 14 14 14 14 15 15 15 15 15 14 14 15 15 15 13 10 13 12
5 5 5 3 2 4 4 2 5 2 2 0 1 1 2 3 4 5 5 5 7 8 7 9 14 14 15 15 14 15 15 15 15 15 15 14 14 15 15 14 15 13 12 12
4 2 6 3 3 7 4 6 5 2 3 1 1 1 2 3 6 9 9 9 7 9 12 15 16 15 14 14 14 15 15 15 15 15 15 15 14 14 13 14 14 13 11 11
5 6 4 4 4 7 3 2 0 4 2 2 3 3 4 6 7 8 11 13 15 16 17 17 14 14 14 13 13 14 15 15 15 15 15 15 14 11 11 13 12 14 11 12
4 4 4 5 2 2 1 3 2 2 2 4 3 5 5 6 8 12 15 15 15 16 16 15 14 15 13 12 11 14 15 15 15 15 15 14 13 11 11 11 11 10 10 7
2 3 2 2 5 6 3 3 6 6 6 5 5 4 4 9 14 15 15 15 15 13 14 14 14 14 14 12 13 13 14 14 14 14 14 12 10 11 11 8 8 8 7 6
4 5 5 3 1 4 2 5 7 7 7 6 5 6 8 11 12 12 13 13 13 13 12 11 12 12 14 14 14 14 14 13 13 13 12 9 9 9 9 9 7 8 8 7
3 5 5 5 7 5 3 6 7 8 5 5 5 9 12 10 12 13 12 11 12 12 11 10 12 12 14 14 14 14 13 13 12 11 9 7 7 7 8 7 8 9 12 11
Wind_Direction
185 148 197 206 181 190 236 224 232 237 239 259 248 268 266 265 211 214 223 233 239 230 233 126 166 141 134 143 146 153 145 162 149 154 143 128 157 144 155 192 214 212 232 237
38 211 216 200 175 202 222 248 276 283 265 157 241 239 260 276 228 208 211 226 233 231 238 134 143 151 162 166 176 168 160 157 144 116 115 107 134 120 126 43 355 246 213 234
171 236 167 168 224 206 231 195 253 216 331 210 219 309 326 311 272 179 255 239 254 229 230 166 176 177 166 172 173 164 161 164 160 136 108 83 73 67 48 359 320 302 356 295
227 284 220 213 237 182 256 206 238 253 131 218 112 264 284 299 313 343 267 276 266 253 242 184 180 190 181 169 168 163 162 162 163 150 129 135 151 171 216 189 196 276 299 292
235 219 81 237 207 161 228 215 205 208 178 122 334 86 270 314 293 286 296 276 246 245 236 198 188 179 172 153 165 173 163 156 157 154 147 146 171 201 206 234 251 285 303 264
218 245 220 215 272 206 273 105 52 48 95 195 220 136 287 241 274 292 279 267 277 322 214 153 119 111 128 121 139 150 160 191 188 173 177 180 191 201 206 220 197 251 259 267
283 211 265 237 54 358 50 59 1 331 359 213 281 99 228 280 325 247 284 328 353 82 75 94 92 95 117 156 177 181 191 207 211 204 203 205 204 201 209 214 198 186 218 239
178 225 166 55 122 190 17 134 151 202 199 230 315 228 212 8 33 42 70 59 23 69 115 120 148 172 186 195 199 203 204 220 212 211 221 218 222 214 210 212 187 196 198 201
162 257 77 99 167 131 218 58 175 105 12 70 258 292 2 34 38 40 44 50 30 37 9 358 349 336 327 309 274 286 270 241 232 234 241 241 237 225 222 213 202 200 197 208
199 129 30 110 284 26 124 150 69 15 144 203 287 265 219 68 62 43 22 8 16 28 29 32 32 11 357 347 329 335 324 320 328 337 322 317 313 289 244 207 215 208 213 211
107 111 273 85 87 141 21 44 70 107 132 162 166 257 215 138 20 355 21 12 44 56 49 40 37 33 31 27 29 28 33 29 28 24 17 9 354 344 329 299 291 240 211 220
16 124 150 211 308 286 90 119 118 134 203 162 158 262 68 49 33 84 47 43 47 59 42 35 33 22 19 10 6 2 360 7 359 355 357 348 338 337 340 333 317 302 279 279
165 41 95 22 349 10 101 120 118 102 80 191 209 269 166 80 62 45 55 37 51 54 22 12 12 6 353 342 334 328 319 308 299 300 306 306 301 300 293 290 290 289 288 278
84 90 146 187 153 166 156 90 146 120 188 225 229 259 292 347 59 30 22 71 36 19 16 344 339 324 318 310 308 311 313 321 320 319 305 291 285 274 267 266 271 268 275 272
81 112 81 7 288 274 205 211 218 211 184 199 201 211 248 171 111 59 339 22 7 348 341 326 316 307 302 298 308 314 308 314 305 299 297 292 289 284 282 279 272 266 265 265
359 135 81 315 326 39 275 270 253 231 230 226 228 244 136 117 64 6 340 8 342 320 309 309 311 313 315 328 317 307 304 301 302 298 294 293 290 287 283 279 273 273 270 266
92 125 99 260 351 325 287 241 228 134 38 232 220 181 90 39 321 304 260 316 299 303 313 313 313 310 305 303 304 305 307 309 303 297 293 295 295 290 288 285 282 278 271 268
120 102 97 278 349 267 238 335 107 105 64 60 72 78 92 297 275 274 195 209 305 316 308 311 308 302 304 305 306 300 297 298 297 295 294 290 288 286 285 276 282 285 282 274
130 110 105 144 237 292 171 29 56 73 76 39 78 27 341 331 325 301 186 325 297 284 283 282 299 306 309 305 304 303 303 302 298 297 294 293 296 295 292 290 285 288 279 282
106 105 108 146 170 238 240 312 352 315 226 287 119 360 300 328 346 242 292 302 284 275 274 308 311 305 305 308 307 306 300 301 296 294 294 293 291 292 289 287 282 276 273 275
137 128 204 160 211 287 266 314 326 132 231 326 135 250 285 252 217 282 317 307 297 298 320 320 314 310 307 311 306 299 296 294 297 297 295 292 289 286 288 285 278 273 272 266
168 173 176 168 184 255 346 336 250 218 305 72 20 352 302 292 298 300 312 314 322 324 328 319 311 310 309 306 300 295 297 300 301 298 293 288 284 281 283 280 280 273 269 273
185 184 159 165 222 205 11 153 318 355 78 30 29 1 359 327 319 318 319 323 326 322 317 317 310 306 307 305 303 300 303 304 300 296 292 288 285 286 279 276 274 279 269 257
357 125 189 142 213 217 348 308 62 64 75 44 49 5 354 327 324 322 322 319 318 318 316 310 310 308 309 312 310 303 304 306 303 305 299 293 293 289 280 273 267 271 275 266
211 152 191 216 177 160 195 52 102 72 60 47 23 0 346 329 325 320 315 316 315 311 309 313 309 308 312 317 315 315 312 309 303 301 298 287 287 282 291 286 264 265 256 243
199 190 154 215 182 131 86 93 88 82 63 42 11 356 348 333 323 322 320 316 311 312 316 315 314 315 316 318 315 313 314 314 305 298 300 301 294 307 303 292 294 260 244 262